This is the latest recevied weather packets stored in our database for station/object 2E0RGX-13. If no packets are shown the sender has not sent any weather packets the latest 10 day(s).
| Time | Temp. | Humidity | Pressure | Rain* | Wind** | Luminosity | Snow |
|---|---|---|---|---|---|---|---|
| 1777553085 | 17.78° C | 41% | 1018.7 hPa | 0 mm | - | 4 W/m² | - |
| 1777552781 | 17.78° C | 41% | 1018.7 hPa | 0 mm | - | 4 W/m² | - |
| 1777552477 | 17.78° C | 42% | 1018.7 hPa | 0 mm | - | 4 W/m² | - |
| 1777552173 | 17.78° C | 42% | 1019 hPa | 0 mm | - | 4 W/m² | - |
| 1777551869 | 18.33° C | 40% | 1019 hPa | 0 mm | - | 4 W/m² | - |
| 1777551565 | 18.33° C | 42% | 1018.9 hPa | 0 mm | - | 4 W/m² | - |
| 1777551261 | 18.33° C | 41% | 1018.8 hPa | 0 mm | - | 5 W/m² | - |
| 1777550957 | 18.33° C | 41% | 1019.2 hPa | 0 mm | - | 5 W/m² | - |
| 1777550653 | 18.33° C | 41% | 1019 hPa | 0 mm | - | 5 W/m² | - |
| 1777550349 | 17.78° C | 41% | 1019 hPa | 0 mm | - | 5 W/m² | - |
| 1777550045 | 18.33° C | 41% | 1018.9 hPa | 0 mm | - | 5 W/m² | - |
| 1777549741 | 17.22° C | 41% | 1019.2 hPa | 0 mm | - | 5 W/m² | - |
| 1777549437 | 17.78° C | 41% | 1019.4 hPa | 0 mm | - | 5 W/m² | - |
| 1777549133 | 17.22° C | 43% | 1019.4 hPa | 0 mm | - | 5 W/m² | - |
| 1777548829 | 17.78° C | 42% | 1019.3 hPa | 0 mm | - | 5 W/m² | - |
| 1777548525 | 18.33° C | 40% | 1019.1 hPa | 0 mm | - | 5 W/m² | - |
| 1777548221 | 17.78° C | 41% | 1019.4 hPa | 0 mm | - | 5 W/m² | - |
| 1777547917 | 17.78° C | 41% | 1019.2 hPa | 0 mm | - | 4 W/m² | - |
| 1777547613 | 17.78° C | 41% | 1019.2 hPa | 0 mm | - | 4 W/m² | - |
| 1777547309 | 17.78° C | 41% | 1019.4 hPa | 0 mm | - | 4 W/m² | - |
| 1777547005 | 17.22° C | 43% | 1019.1 hPa | 0 mm | - | 4 W/m² | - |
| 1777546701 | 17.22° C | 42% | 1019.2 hPa | 0 mm | - | 4 W/m² | - |
| 1777546397 | 17.22° C | 42% | 1019 hPa | 0 mm | - | 4 W/m² | - |
| 1777546093 | 17.78° C | 42% | 1019.2 hPa | 0 mm | - | 4 W/m² | - |
| 1777545789 | 17.78° C | 42% | 1019.3 hPa | 0 mm | - | 4 W/m² | - |
* Rain latest hour (hover to see other rain measurements)
** Current wind speed in m/s (hover to see current wind gust speed)